ASTRA 1F (23842 NORAD) Tracking and Keplerian Element Data

This shows tracking and keplerian element data for the satellite.

Feedback or suggestion? Click here.




ElementValue
Catalog23842
NameASTRA 1F
Epoch Orbit3180
Epoch Day312.7529984
Epoch Year2020
RAAN85.1591
Inclination0.1836
Eccentricity0.0002988
Argument of Perigee123.951
Mean Anonmoly67.6347
Mean Motion0.99119708
Decay Rate-2.26E-06
L11 23842U 96021A 20312.75299840 -.00000226 00000-0 00000-0 0 9990
L22 23842 0.1836 85.1591 0002988 123.9510 67.6347 0.99119708 31805



Live tracking and technical data element details for ASTRA 1F (NORAD 23842). ASTRA 1F can be tracked NOW for your location showing map with azimuth and elevation plus other details from your city location.







IsCatalogInMostPopularTable: catalog: 23842, numindb: 358
Update: records affected: 1



GetName: 23842 ASTRA 1F

Hit Count: updated at: Sat, 07 Mar 2026 05:55:56 GMT